STARLINK-32316, 61860

Orbit data source: Space-Track

STARLINK-32316, 61860 is a payload satellite owned by SpaceX/Seattle (US) in LEO that was launched on Thu, 07 Nov 2024 UTC via an FALCON 9 launch vehicle from the Air Force Eastern Test Range (AFETR). Payload-class satellites include a variety of spacecraft equipped with specific instruments for various scientific and technological missions. These include communications satellites like Starlink; space stations such as the ISS; scientific satellites like the Hubble; Earth observation satellites from companies like Planet Labs, Umbra, and HawkEye 360; GPS; miniature CubeSats for education and research; and military/defense satellites.

Loading next visibility...
Identifier
61860, 2024-202R
Orbit
LEO
Country
Flag of USUS
Related business
Manufacturer
SpaceX/Seattle
Mission
Operational Commercial Communications
Bus & Motor
STARLINK V2M, Unknown motor
Mass
730 kg wet, ~700 kg dry
Launch date (UTC)
2024-11-07 (2 years ago)
Launch vehicle
FALCON 9
Launch site
Air Force Eastern Test Range (AFETR)
Object type
Payload
Rocket body
Debris
Shape & HBR
Box + 2 Pan, 17.7 m
Radar Cross Section
33.884 m², Large (>1 m²)

Expand to show TLE details & history
Last TLE update: 23 hours ago

TLE from 23 hours ago
0 STARLINK-32316
1 61860U 24202R   26266.18075885  .00001778  00000-0  74127-4 0  9993
2 61860  43.0001 198.9996 0001161 267.2938  92.7781 15.27576540105572
Epoch: 2026-09-23T04:20Z
TLE epoch observation values (Epoch: 2026-09-23T04:20:17.564Z)
Latitude
-0.00001°
Longitude
131.89083°
Altitude
482.874 km
Speed
7.626 km/s
True Right ascension
13h 15m 59s
True Declination
0° 00' 00"
Sunlit
Object was in daylight at epoch
Visualization orbit readout
Latitude
Unknown
Longitude
Unknown
Altitude
Unknown
Speed
Unknown
Apparent Right ascension
Unknown
Apparent Declination
Unknown
Sunlit
N/A
Visualization observer readout
Local Sidereal Time
20:47:16
Azimuth
Unknown
Elevation
Unknown
Doppler factor
Unknown
Orbital elements
Apogee altitude
485.801 km
Perigee altitude
484.208 km
Semi-major axis
6,863.142 km
Eccentricity
0.00012
Inclination
43.0001°
RAAN
198.9996°
Arg. of periapsis
267.2938°
True anomaly
92.79139°
Mean anomaly
92.7781°
Eccentric anomaly
92.78474°
Mean motion
3.81732 °/min
Orbital period
94.31 mins
BSTAR
0.000074127
Loading maneuver chart data...
Computing Atmospheric mass density...
Loading historical data...
Loading historical data...
Loading historical data...
Loading historical data...
Loading historical data...
Loading historical data...
Loading historical data...

Documentation

Showing up to 5 results
|